This is the latest recevied weather packets stored in our database for station/object EA3CTN-13. If no packets are shown the sender has not sent any weather packets the latest 10 day(s).
| Time | Temp. | Humidity | Pressure | Rain* | Wind** | Luminosity | Snow |
|---|---|---|---|---|---|---|---|
| 1777969759 | 18.89° C | 50% | 1012.6 hPa | - | - | - | - |
| 1777969279 | 18.89° C | 50% | 1012.4 hPa | - | - | - | - |
| 1777968799 | 18.89° C | 49% | 1012.2 hPa | - | - | - | - |
| 1777968319 | 19.44° C | 49% | 1012.1 hPa | - | - | - | - |
| 1777967839 | 19.44° C | 49% | 1012.1 hPa | - | - | - | - |
| 1777967359 | 18.89° C | 49% | 1012.1 hPa | - | - | - | - |
| 1777966879 | 18.89° C | 50% | 1012.2 hPa | - | - | - | - |
| 1777966399 | 18.33° C | 51% | 1012.2 hPa | - | - | - | - |
| 1777965919 | 18.33° C | 51% | 1012.2 hPa | - | - | - | - |
| 1777965439 | 18.33° C | 49% | 1012.2 hPa | - | - | - | - |
| 1777964959 | 18.33° C | 48% | 1012.2 hPa | - | - | - | - |
| 1777964479 | 17.78° C | 50% | 1012.1 hPa | - | - | - | - |
| 1777963999 | 18.33° C | 51% | 1012.2 hPa | - | - | - | - |
| 1777931839 | 18.33° C | 58% | 1012.2 hPa | - | - | - | - |
| 1777931359 | 18.33° C | 58% | 1012.2 hPa | - | - | - | - |
| 1777930879 | 18.33° C | 58% | 1012.3 hPa | - | - | - | - |
| 1777930399 | 18.33° C | 58% | 1012.4 hPa | - | - | - | - |
| 1777929919 | 18.33° C | 57% | 1012.3 hPa | - | - | - | - |
| 1777929439 | 18.33° C | 57% | 1012.4 hPa | - | - | - | - |
| 1777928959 | 18.33° C | 57% | 1012.3 hPa | - | - | - | - |
| 1777928479 | 18.33° C | 58% | 1012.5 hPa | - | - | - | - |
| 1777927999 | 18.33° C | 58% | 1012.4 hPa | - | - | - | - |
| 1777927519 | 18.33° C | 58% | 1012.5 hPa | - | - | - | - |
| 1777927040 | 18.33° C | 58% | 1012.6 hPa | - | - | - | - |
| 1777926562 | 18.33° C | 58% | 1012.3 hPa | - | - | - | - |
* Rain since midnight (hover to see other rain measurements)
** Current wind speed in m/s (hover to see current wind gust speed)